| time (UTC) | temp F | wind direction | speed knots | gust knots | rain 1hr in | rain 24hr in | rain mn in | humidity % | barometer mb |
| 20260901153842 | 62 | 180 | 0.0 | 4.3 | 0.21 | 0.45 | 0.45 | 99 | 1016.6 |
| 20260901152342 | 64 | 135 | 1.7 | 2.6 | 0.24 | 0.39 | 0.39 | 99 | 1016.8 |
| 20260901150837 | 65 | 165 | 0.0 | 3.5 | 0.17 | 0.33 | 0.33 | 99 | 1016.5 |
| 20260901145332 | 64 | 131 | 0.0 | 3.5 | 0.24 | 0.29 | 0.29 | 98 | 1016.6 |
| 20260901143830 | 65 | 148 | 1.7 | 2.6 | 0.12 | 0.23 | 0.23 | 98 | 1016.5 |
| 20260901142327 | 66 | 192 | 0.0 | 4.3 | 0.21 | 0.19 | 0.19 | 98 | 1016.7 |
| 20260901140822 | 68 | 90 | 0.0 | 1.7 | 0.19 | 0.11 | 0.11 | 98 | 1017.3 |
| 20260901135322 | 68 | 0 | 0.9 | 0.9 | 0.05 | 0.07 | 0.07 | 98 | 1016.4 |
| 20260901133818 | 69 | 71 | 0.9 | 2.6 | 0.02 | 0.06 | 0.06 | 97 | 1016.1 |
| 20260901132317 | 69 | 151 | 0.0 | 1.7 | 0.05 | 0.05 | 0.05 | 97 | 1016.2 |
| 20260901130812 | 69 | 162 | 0.0 | 1.7 | 0.07 | 0.04 | 0.04 | 96 | 1016.2 |
| 20260901125310 | 69 | 175 | 0.0 | 2.6 | 0.05 | 0.01 | 0.01 | 94 | 1016.2 |
| 20260901123806 | 69 | 175 | 0.0 | 1.7 | 0.00 | 0.00 | 0.00 | 92 | 1016.1 |
| 20260901122300 | 69 | 120 | 0.0 | 1.7 | 0.00 | 0.00 | 0.00 | 91 | 1016.1 |
| 20260901120800 | 70 | 90 | 0.0 | 0.9 | 0.00 | 0.00 | 0.00 | 91 | 1016.1 |
| 20260901115258 | 69 | 165 | 0.0 | 1.7 | 0.00 | 0.00 | 0.00 | 92 | 1016.1 |
| 20260901113754 | 69 | 106 | 0.0 | 0.9 | 0.00 | 0.00 | 0.00 | 94 | 1016.1 |
| 20260901112249 | 68 | 102 | 1.7 | 2.6 | 0.00 | 0.00 | 0.00 | 95 | 1016.2 |
| 20260901110748 | 68 | 142 | 0.0 | 1.7 | 0.00 | 0.00 | 0.00 | 95 | 1016.2 |
| 20260901105246 | 68 | 90 | 0.0 | 0.9 | 0.00 | 0.00 | 0.00 | 96 | 1016.0 |
| 20260901103743 | 68 | 157 | 1.7 | 1.7 | 0.00 | 0.00 | 0.00 | 96 | 1015.9 |
| 20260901102238 | 68 | 81 | 0.0 | 0.0 | 0.00 | 0.00 | 0.00 | 96 | 1015.7 |
| 20260901100739 | 67 | 117 | 0.9 | 1.7 | 0.00 | 0.00 | 0.00 | 96 | 1015.6 |
| 20260901095235 | 67 | 81 | 0.0 | 0.9 | 0.00 | 0.00 | 0.00 | 96 | 1015.5 |
| 20260901093732 | 67 | 90 | 0.0 | 0.9 | 0.00 | 0.00 | 0.00 | 95 | 1015.7 |
| 20260901092229 | 67 | 151 | 0.0 | 1.7 | 0.00 | 0.00 | 0.00 | 95 | 1015.6 |
| 20260901090726 | 67 | 114 | 0.0 | 1.7 | 0.00 | 0.00 | 0.00 | 95 | 1015.7 |
| 20260901085224 | 67 | 74 | 0.9 | 1.7 | 0.00 | 0.00 | 0.00 | 95 | 1015.7 |
| 20260901083722 | 67 | 120 | 0.0 | 0.9 | 0.00 | 0.00 | 0.00 | 95 | 1016.3 |
| 20260901082222 | 67 | 69 | 0.0 | 0.0 | 0.00 | 0.00 | 0.00 | 94 | 1016.6 |
| 20260901080718 | 67 | 90 | 0.0 | 0.0 | 0.00 | 0.00 | 0.00 | 93 | 1016.6 |
| 20260901075217 | 67 | 90 | 0.0 | 0.0 | 0.00 | 0.00 | 0.00 | 93 | 1016.5 |
| 20260901073715 | 67 | 114 | 0.0 | 0.0 | 0.00 | 0.00 | 0.00 | 92 | 1016.5 |
| 20260901072212 | 67 | 352 | 0.0 | 1.7 | 0.00 | 0.00 | 0.00 | 92 | 1016.3 |
| 20260901070712 | 67 | 106 | 0.0 | 0.0 | 0.00 | 0.00 | 0.00 | 92 | 1016.3 |
| 20260901065207 | 67 | 114 | 0.0 | 0.0 | 0.00 | 0.00 | 0.00 | 92 | 1016.6 |
| 20260901063703 | 67 | 74 | 0.0 | 0.9 | 0.00 | 0.00 | 0.00 | 92 | 1016.7 |
| 20260901062201 | 67 | 106 | 0.0 | 0.9 | 0.00 | 0.00 | 0.00 | 91 | 1016.9 |
| 20260901060658 | 67 | 180 | 0.0 | 0.0 | 0.00 | 0.00 | 0.00 | 91 | 1017.0 |
| 20260901055156 | 67 | 120 | 0.0 | 1.7 | 0.00 | 0.00 | 0.00 | 91 | 1016.8 |
| 20260901053657 | 67 | 90 | 0.0 | 0.0 | 0.00 | 0.00 | 0.00 | 91 | 1016.9 |
| 20260901052155 | 67 | 140 | 0.0 | 0.0 | 0.00 | 0.00 | 0.00 | 91 | 1017.1 |
| 20260901050654 | 68 | 109 | 0.9 | 1.7 | 0.00 | 0.00 | 0.00 | 91 | 1017.1 |
| 20260901045150 | 67 | 150 | 1.7 | 1.7 | 0.00 | 0.00 | 0.00 | 92 | 1017.2 |
| 20260901043649 | 67 | 66 | 0.0 | 1.7 | 0.00 | 0.00 | 0.00 | 91 | 1017.2 |
| 20260901042145 | 68 | 180 | 0.0 | 1.7 | 0.00 | 0.00 | 0.00 | 91 | 1017.3 |
| 20260901040642 | 68 | 145 | 0.0 | 1.7 | 0.00 | 0.00 | 0.00 | 91 | 1017.3 |
| 20260901035138 | 68 | 157 | 0.0 | 0.9 | 0.00 | 0.02 | 0.02 | 91 | 1017.5 |
| 20260901033637 | 67 | 172 | 0.0 | 0.0 | 0.00 | 0.02 | 0.02 | 91 | 1017.4 |
| 20260901032137 | 67 | 23 | 0.0 | 0.0 | 0.00 | 0.02 | 0.02 | 91 | 1017.5 |
| 20260901030634 | 67 | 172 | 0.0 | 0.9 | 0.00 | 0.02 | 0.02 | 91 | 1017.2 |
| 20260901025130 | 67 | 66 | 0.0 | 0.9 | 0.00 | 0.02 | 0.02 | 91 | 1017.4 |
| 20260901023628 | 67 | 90 | 0.0 | 1.7 | 0.00 | 0.02 | 0.02 | 90 | 1017.3 |
| 20260901022125 | 68 | 117 | 0.0 | 0.0 | 0.00 | 0.02 | 0.02 | 89 | 1017.5 |
| 20260901020624 | 68 | 107 | 0.0 | 1.7 | 0.00 | 0.02 | 0.02 | 88 | 1017.9 |
| 20260901015119 | 68 | 160 | 0.0 | 1.7 | 0.00 | 0.02 | 0.02 | 87 | 1018.0 |
| 20260901013617 | 68 | 97 | 0.0 | 1.7 | 0.00 | 0.02 | 0.02 | 87 | 1017.6 |
| 20260901012113 | 68 | 106 | 0.0 | 1.7 | 0.00 | 0.02 | 0.02 | 86 | 1017.6 |
| 20260901010609 | 68 | 75 | 0.9 | 1.7 | 0.00 | 0.02 | 0.02 | 86 | 1017.8 |
| 20260901005109 | 68 | 188 | 0.0 | 1.7 | 0.00 | 0.02 | 0.02 | 87 | 1017.8 |
| 20260901003605 | 68 | 159 | 0.0 | 2.6 | 0.00 | 0.02 | 0.02 | 87 | 1017.9 |
| 20260901002104 | 68 | 151 | 0.0 | 0.9 | 0.00 | 0.02 | 0.02 | 87 | 1018.1 |
| 20260901000601 | 68 | 102 | 0.0 | 2.6 | 0.00 | 0.02 | 0.02 | 87 | 1017.6 |
| 20260831235058 | 68 | 180 | 0.9 | 1.7 | 0.00 | 0.02 | 0.02 | 86 | 1018.0 |
| 20260831233554 | 69 | 77 | 0.0 | 1.7 | 0.00 | 0.02 | 0.02 | 86 | 1018.0 |
| 20260831232052 | 69 | 105 | 0.0 | 2.6 | 0.00 | 0.02 | 0.02 | 85 | 1017.8 |
| 20260831230551 | 69 | 95 | 1.7 | 4.3 | 0.00 | 0.02 | 0.02 | 83 | 1017.9 |
| 20260831225047 | 70 | 209 | 0.0 | 2.6 | 0.00 | 0.02 | 0.02 | 82 | 1017.8 |
| 20260831223544 | 70 | 180 | 0.0 | 1.7 | 0.00 | 0.02 | 0.02 | 80 | 1017.9 |
| 20260831222042 | 71 | 206 | 0.0 | 2.6 | 0.00 | 0.02 | 0.02 | 77 | 1017.9 |
| 20260831220539 | 71 | 263 | 0.9 | 5.2 | 0.00 | 0.02 | 0.02 | 78 | 1017.9 |
| 20260831215037 | 71 | 225 | 2.6 | 3.5 | 0.00 | 0.02 | 0.02 | 77 | 1017.8 |
| 20260831213532 | 72 | 148 | 0.0 | 3.5 | 0.00 | 0.02 | 0.02 | 77 | 1018.1 |
| 20260831212030 | 75 | 124 | 0.0 | 2.6 | 0.00 | 0.02 | 0.02 | 71 | 1018.3 |
| 20260831210525 | 75 | 154 | 0.9 | 2.6 | 0.00 | 0.02 | 0.02 | 70 | 1018.2 |
| 20260831205024 | 77 | 41 | 0.0 | 2.6 | 0.00 | 0.02 | 0.02 | 67 | 1017.9 |
| 20260831203522 | 76 | 185 | 0.0 | 2.6 | 0.00 | 0.02 | 0.02 | 67 | 1017.9 |
| 20260831202021 | 80 | 126 | 0.0 | 1.7 | 0.00 | 0.02 | 0.02 | 59 | 1017.8 |
| 20260831200517 | 82 | 135 | 0.0 | 2.6 | 0.00 | 0.02 | 0.02 | 56 | 1018.0 |
| 20260831195013 | 79 | 174 | 0.0 | 2.6 | 0.00 | 0.02 | 0.02 | 63 | 1017.9 |
| 20260831193509 | 81 | 156 | 0.0 | 3.5 | 0.00 | 0.02 | 0.02 | 59 | 1018.0 |
| 20260831192006 | 79 | 114 | 0.0 | 4.3 | 0.00 | 0.02 | 0.02 | 59 | 1018.1 |
| 20260831190506 | 82 | 135 | 1.7 | 1.7 | 0.00 | 0.02 | 0.02 | 55 | 1018.1 |
| 20260831185000 | 84 | 173 | 0.0 | 2.6 | 0.00 | 0.02 | 0.02 | 49 | 1018.1 |
| 20260831183455 | 87 | 195 | 0.0 | 2.6 | 0.00 | 0.02 | 0.02 | 48 | 1018.7 |
| 20260831181951 | 84 | 279 | 0.0 | 1.7 | 0.00 | 0.02 | 0.02 | 50 | 1018.5 |
| 20260831180447 | 86 | 190 | 0.0 | 3.5 | 0.00 | 0.02 | 0.02 | 49 | 1018.5 |
| 20260831174944 | 85 | 23 | 0.0 | 2.6 | 0.00 | 0.02 | 0.02 | 50 | 1018.7 |
| 20260831173443 | 88 | 151 | 0.0 | 3.5 | 0.00 | 0.02 | 0.02 | 48 | 1018.9 |
| 20260831171941 | 84 | 157 | 0.0 | 2.6 | 0.00 | 0.02 | 0.02 | 51 | 1018.8 |
| 20260831170441 | 82 | 174 | 0.0 | 2.6 | 0.00 | 0.02 | 0.02 | 55 | 1019.2 |
| 20260831164936 | 84 | 61 | 0.0 | 2.6 | 0.00 | 0.02 | 0.02 | 52 | 1019.0 |
| 20260831163434 | 83 | 145 | 0.0 | 2.6 | 0.00 | 0.02 | 0.02 | 56 | 1019.0 |
| 20260831161932 | 83 | 166 | 0.9 | 3.5 | 0.00 | 0.02 | 0.02 | 56 | 1019.1 |
| 20260831160430 | 83 | 90 | 1.7 | 7.0 | 0.00 | 0.02 | 0.02 | 55 | 1019.5 |